Date String (YYYY-MM-DD hh:mm:ss) UTC,Instrument flags,absolute air pressure of the measurement (hPa),sample flow rate (lpm),inlet stack bypass flow (lpm),air temperature of the measurement (°C),ambient temperature measured by the external sensor (°C),aerosol sample conditioner tube jacket temperature (°C),OPC LED temperature (°C),internal box temperature (°C),relative humidity of the measurement (%),span deviation,mass concentration of particles derived from Lorenz-Mie calculation of OPC scattering (μg/m³),mass concentration of particles derived from Lorenz-Mie calculation of OPC scattering (μg/m³),mass concentration of particles derived from Lorenz-Mie calculation of OPC scattering (μg/m³)
DateTimeUTC,F1_M11,P_M11,Q1_M11,Q2_M11,T1_M11,T2_M11,T3_M11,T4_M11,T5_M11,U1_M11,ZSPAN_M11,X0_M11,X2_M11,X1_M11
2024-02-16 05:00:00,SystemResetWarning,0828.2,5.01,000.00,020.2,019.7,000.0,028.7,022.0,20.7,0001.5,0011.52,0007.11,0006.74
2024-02-16 05:01:00,SystemResetWarning,0828.1,5.00,000.00,020.2,019.7,000.0,028.7,022.0,20.8,0001.5,0011.49,0007.10,0006.72
2024-02-16 05:02:00,SystemResetWarning,0828.1,5.00,000.00,020.2,019.7,000.0,028.7,022.0,20.8,0001.6,0011.16,0007.05,0006.68
2024-02-16 05:03:00,SystemResetWarning,0828.2,4.99,000.00,020.2,019.7,000.0,028.7,022.0,20.9,0001.8,0011.29,0007.06,0006.66
2024-02-16 05:04:00,SystemResetWarning,0828.2,5.00,000.00,020.2,019.6,000.0,028.7,022.1,20.9,0002.1,0011.34,0007.05,0006.65
2024-02-16 05:05:00,SystemResetWarning,0828.2,5.00,000.00,020.2,019.6,000.0,028.7,022.1,20.9,0002.1,0011.55,0007.05,0006.65
2024-02-16 05:06:00,SystemResetWarning,0828.2,5.00,000.00,020.2,019.6,000.0,028.7,022.1,21.0,0002.4,0010.46,0007.00,0006.62
2024-02-16 05:07:00,SystemResetWarning,0828.1,5.00,000.00,020.2,019.6,000.0,028.7,022.0,21.0,0001.8,0010.31,0006.95,0006.58
2024-02-16 05:08:00,SystemResetWarning,0828.2,4.99,000.00,020.2,019.6,000.0,028.7,022.1,21.1,0001.8,0010.43,0006.95,0006.56
2024-02-16 05:09:00,SystemResetWarning,0828.2,5.00,000.00,020.2,019.7,000.0,028.7,022.1,21.0,0002.1,0011.38,0006.96,0006.56
2024-02-16 05:10:00,SystemResetWarning,0828.2,5.00,000.00,020.2,019.7,000.0,028.7,022.0,21.1,0002.3,0012.33,0006.96,0006.57
2024-02-16 05:11:00,SystemResetWarning,0828.2,4.99,000.00,020.2,019.7,000.0,028.7,022.0,21.1,0002.5,0012.56,0006.96,0006.57
2024-02-16 05:12:00,SystemResetWarning,0828.1,5.00,000.00,020.2,019.7,000.0,028.7,022.1,21.0,0002.9,0013.53,0007.00,0006.60
2024-02-16 05:13:00,SystemResetWarning,0828.1,5.00,000.00,020.2,019.7,000.0,028.7,022.0,21.0,0002.7,0013.69,0007.02,0006.62
2024-02-16 05:14:00,SystemResetWarning,0828.2,5.01,000.00,020.2,019.7,000.0,028.7,022.0,21.1,0002.6,0013.63,0007.04,0006.65
2024-02-16 05:15:00,SystemResetWarning,0828.3,5.00,000.00,020.2,019.7,000.0,028.7,022.0,21.1,0002.3,0013.62,0007.05,0006.67
2024-02-16 05:16:00,SystemResetWarning,0828.3,5.00,000.00,020.2,019.7,000.0,028.7,022.0,21.1,0002.1,0013.27,0007.03,0006.67
2024-02-16 05:17:00,SystemResetWarning,0828.3,4.99,000.00,020.2,019.7,000.0,028.7,022.0,21.2,0001.8,0013.27,0007.05,0006.70
2024-02-16 05:18:00,SystemResetWarning,0828.3,5.00,000.00,020.2,019.7,000.0,028.7,022.0,21.1,0002.2,0013.37,0007.07,0006.72
2024-02-16 05:19:00,SystemResetWarning,0828.4,5.01,000.00,020.2,019.7,000.0,028.7,022.0,21.1,0002.3,0013.39,0007.07,0006.73
2024-02-16 05:20:00,SystemResetWarning,0828.4,5.00,000.00,020.2,019.7,000.0,028.7,022.0,21.1,0002.4,0012.43,0007.08,0006.75
2024-02-16 05:21:00,SystemResetWarning,0828.4,5.00,000.00,020.2,019.7,000.0,028.7,022.0,21.1,0002.3,0011.61,0007.09,0006.76
2024-02-16 05:22:00,SystemResetWarning,0828.4,5.00,000.00,020.2,019.7,000.0,028.7,022.0,21.1,0002.2,0011.04,0007.08,0006.77
2024-02-16 05:23:00,SystemResetWarning,0828.4,5.00,000.00,020.2,019.6,000.0,028.7,022.0,21.1,0001.9,0010.12,0007.07,0006.76
2024-02-16 05:24:00,SystemResetWarning,0828.4,5.00,000.00,020.2,019.6,000.0,028.7,022.0,21.1,0002.1,0010.30,0007.06,0006.76
2024-02-16 05:25:00,SystemResetWarning,0828.4,4.99,000.00,020.2,019.6,000.0,028.7,022.0,21.1,0002.3,0010.37,0007.04,0006.75
2024-02-16 05:26:00,SystemResetWarning,0828.5,4.99,000.00,020.2,019.6,000.0,028.7,022.0,21.1,0002.1,0010.41,0007.04,0006.75
2024-02-16 05:27:00,SystemResetWarning,0828.5,5.00,000.00,020.2,019.6,000.0,028.7,022.0,21.0,0002.3,0010.46,0007.06,0006.75
2024-02-16 05:28:00,SystemResetWarning,0828.6,5.00,000.00,020.2,019.6,000.0,028.7,022.0,21.0,0002.3,0010.40,0007.03,0006.73
2024-02-16 05:29:00,SystemResetWarning,0828.6,5.00,000.00,020.2,019.6,000.0,028.7,022.0,21.0,0002.2,0010.33,0007.04,0006.74
2024-02-16 05:30:00,SystemResetWarning,0828.6,5.00,000.00,020.1,019.6,000.0,028.7,022.0,21.1,0002.0,0010.26,0007.03,0006.76
2024-02-16 05:31:00,SystemResetWarning,0828.6,5.00,000.00,020.1,019.6,000.0,028.7,022.0,21.1,0001.9,0010.28,0007.04,0006.77
2024-02-16 05:32:00,SystemResetWarning,0828.6,5.00,000.00,020.1,019.6,000.0,028.7,022.0,21.1,0001.9,0010.27,0007.04,0006.78
2024-02-16 05:33:00,SystemResetWarning,0828.6,5.01,000.00,020.1,019.6,000.0,028.7,022.0,21.2,0002.1,0010.55,0007.09,0006.81
2024-02-16 05:34:00,SystemResetWarning,0828.6,5.00,000.00,020.1,019.6,000.0,028.7,022.0,21.1,0002.1,0011.16,0007.15,0006.85
2024-02-16 05:35:00,SystemResetWarning,0828.6,5.00,000.00,020.1,019.6,000.0,028.6,022.0,21.1,0002.3,0010.79,0007.20,0006.89
2024-02-16 05:36:00,SystemResetWarning,0828.6,4.99,000.00,020.1,019.6,000.0,028.6,022.0,21.1,0002.0,0011.02,0007.25,0006.92
2024-02-16 05:37:00,SystemResetWarning,0828.6,5.00,000.00,020.1,019.6,000.0,028.6,022.0,21.1,0001.7,0011.58,0007.29,0006.95
2024-02-16 05:38:00,SystemResetWarning,0828.6,5.00,000.00,020.1,019.6,000.0,028.6,022.0,21.2,0001.6,0011.88,0007.35,0007.00
2024-02-16 05:39:00,SystemResetWarning,0828.6,5.00,000.00,020.1,019.6,000.0,028.6,022.0,21.1,0001.4,0012.45,0007.41,0007.03
2024-02-16 05:40:00,SystemResetWarning,0828.7,5.00,000.00,020.1,019.6,000.0,028.6,021.9,21.2,0001.4,0012.81,0007.45,0007.07
2024-02-16 05:41:00,SystemResetWarning,0828.6,4.99,000.00,020.1,019.6,000.0,028.6,021.9,21.2,0001.4,0013.42,0007.48,0007.10
2024-02-16 05:42:00,SystemResetWarning,0828.7,5.00,000.00,020.1,019.6,000.0,028.6,021.9,21.2,0001.0,0013.45,0007.52,0007.14
2024-02-16 05:43:00,SystemResetWarning,0828.7,5.00,000.00,020.1,019.6,000.0,028.6,021.9,21.3,0000.8,0013.53,0007.60,0007.18
2024-02-16 05:44:00,SystemResetWarning,0828.7,5.00,000.00,020.1,019.6,000.0,028.6,021.9,21.4,0000.8,0013.76,0007.63,0007.22
2024-02-16 05:45:00,SystemResetWarning,0828.7,5.01,000.00,020.1,019.6,000.0,028.6,021.9,21.4,0000.8,0013.59,0007.65,0007.25
2024-02-16 05:46:00,SystemResetWarning,0828.8,5.01,000.00,020.1,019.6,000.0,028.6,021.9,21.5,0000.5,0013.58,0007.67,0007.26
2024-02-16 05:47:00,SystemResetWarning,0828.7,5.00,000.00,020.1,019.5,000.0,028.6,021.9,21.5,0000.6,0013.34,0007.68,0007.30
2024-02-16 05:48:00,SystemResetWarning,0828.8,5.00,000.00,020.1,019.5,000.0,028.6,021.9,21.5,0001.0,0012.89,0007.70,0007.32
2024-02-16 05:49:00,SystemResetWarning,0828.8,4.99,000.00,020.1,019.5,000.0,028.6,021.9,21.6,0001.3,0012.65,0007.70,0007.36
2024-02-16 05:50:00,SystemResetWarning,0828.8,5.00,000.00,020.0,019.5,000.0,028.6,021.9,21.6,0001.5,0012.36,0007.75,0007.40
2024-02-16 05:51:00,SystemResetWarning,0828.8,5.01,000.00,020.0,019.5,000.0,028.6,021.9,21.6,0001.2,0012.41,0007.80,0007.44
2024-02-16 05:52:00,SystemResetWarning,0828.7,5.00,000.00,020.0,019.5,000.0,028.6,021.8,21.7,0001.2,0011.94,0007.84,0007.47
2024-02-16 05:53:00,SystemResetWarning,0828.8,5.00,000.00,020.0,019.5,000.0,028.6,021.9,21.8,0001.4,0011.92,0007.84,0007.47
2024-02-16 05:54:00,SystemResetWarning,0828.8,5.00,000.00,020.0,019.5,000.0,028.6,021.9,21.8,0001.7,0012.37,0007.80,0007.45
2024-02-16 05:55:00,SystemResetWarning,0828.9,5.00,000.00,020.0,019.5,000.0,028.6,021.8,21.8,0001.7,0012.96,0007.82,0007.47
2024-02-16 05:56:00,SystemResetWarning,0828.9,5.00,000.00,020.0,019.5,000.0,028.6,021.8,21.8,0001.6,0012.36,0007.86,0007.48
2024-02-16 05:57:00,SystemResetWarning,0828.9,5.00,000.00,020.0,019.5,000.0,028.6,021.8,21.9,0001.7,0012.55,0007.92,0007.52
2024-02-16 05:58:00,SystemResetWarning,0828.9,5.00,000.00,020.0,019.5,000.0,028.6,021.8,21.9,0001.4,0012.69,0007.95,0007.54
2024-02-16 05:59:00,SystemResetWarning,0828.9,4.99,000.00,020.0,019.4,000.0,028.5,021.8,21.9,0001.4,0012.74,0007.96,0007.56
